Algona, IA

3:41 AM CST on February 24, 2017 (GMT -0600)
Algona Municipal

Weather History for KAXA - December, 2013

Change the Weather History Date:

Wednesday, December 4, 2013

  Actual Average Record
Temperature  
Mean Temperature 24 °F -  
Max Temperature 33 °F 35 °F 57 °F (1998)
Min Temperature 14 °F 22 °F 3 °F (2005)
Degree Days  
Heating Degree Days 42    
Moisture  
Dew Point 27 °F    
Average Humidity 94    
Maximum Humidity 100    
Minimum Humidity 73    
Precipitation  
Precipitation 0.01 in - - ()
Sea Level Pressure  
Sea Level Pressure 29.62 in    
Wind  
Wind Speed 11 mph (NW)    
Max Wind Speed 25 mph    
Max Gust Speed 33 mph    
Visibility 4 miles    
Events Fog , Rain , Snow    
Averages and records for this station are not official NWS values.
T = Trace of Precipitation, MM = Missing Value Source: NWS Daily Summary

Daily Weather History Graph

Daily Weather History Graph

Search for Another Location

Airport or City:

Trip Planner

Search our weather history database for the weather conditions in past years. The results will help you decide how hot, cold, wet, or windy it might be!

Date:

Astronomy

Dec. 04, 2013 Rise Set
Actual Time 7:32 AM CST 4:42 PM CST
Civil Twilight 7:00 AM CST 5:14 PM CST
Nautical Twilight 6:24 AM CST 5:49 PM CST
Astronomical Twilight 5:50 AM CST 6:24 PM CST
Moon 9:00 AM CST (12/4) 6:55 PM CST (12/4)
Length of Visible Light 10h 14m
Length of Day
9h 10m
Waxing Crescent, 4% of the Moon is Illuminated
Dec 4
Waxing Crescent
Dec 9
First Quarter
Dec 17
Full
Dec 25
Last Quarter
Jan 1
New

Hourly Weather History & Observations

Time (CST) Temp. Windchill Dew Point Humidity Pressure Visibility Wind Dir Wind Speed Gust Speed Precip Events Conditions
12:15 AM 33.8 °F 25.8 °F 33.8 °F 100% 29.65 in 0.2 mi NE 10.4 mph - N/A Fog Fog
12:35 AM 33.8 °F 25.3 °F 33.8 °F 100% 29.62 in 0.2 mi NE 11.5 mph - N/A Fog Fog
12:55 AM 33.8 °F 25.8 °F 33.8 °F 100% 29.62 in 0.2 mi NE 10.4 mph - N/A Fog Fog
1:15 AM 33.8 °F 27.7 °F 33.8 °F 100% 29.65 in 0.8 mi NNE 6.9 mph - N/A   Overcast
1:35 AM 33.8 °F 29.6 °F 33.8 °F 100% 29.65 in 0.5 mi NE 4.6 mph - N/A   Overcast
1:55 AM 33.8 °F 28.6 °F 33.8 °F 100% 29.65 in 0.5 mi NNE 5.8 mph - N/A   Overcast
2:15 AM 33.8 °F 27.0 °F 33.8 °F 100% 29.64 in 0.2 mi NNE 8.1 mph - N/A   Light Drizzle
2:35 AM 33.8 °F 27.0 °F 33.8 °F 100% 29.64 in 0.2 mi NNE 8.1 mph - N/A   Light Drizzle
2:55 AM 33.8 °F 28.6 °F 33.8 °F 100% 29.64 in 0.2 mi NE 5.8 mph - N/A Fog Fog
3:15 AM 33.8 °F 27.7 °F 33.8 °F 100% 29.63 in 0.2 mi NNE 6.9 mph - N/A Fog Fog
3:35 AM 33.8 °F 28.6 °F 33.8 °F 100% 29.64 in 0.5 mi NNE 5.8 mph - N/A Fog Fog
3:55 AM 33.8 °F 27.0 °F 33.8 °F 100% 29.62 in 0.5 mi NNE 8.1 mph - N/A   Light Drizzle
4:15 AM 33.8 °F 27.7 °F 33.8 °F 100% 29.62 in 0.5 mi NE 6.9 mph - N/A   Overcast
4:35 AM 33.8 °F 26.4 °F 33.8 °F 100% 29.60 in 0.5 mi NE 9.2 mph - N/A   Overcast
4:55 AM 33.8 °F 26.4 °F 33.8 °F 100% 29.59 in 0.8 mi NE 9.2 mph - N/A   Overcast
5:15 AM 33.8 °F 25.8 °F 33.8 °F 100% 29.58 in 0.8 mi NE 10.4 mph - N/A   Overcast
5:35 AM 33.8 °F 25.3 °F 33.8 °F 100% 29.57 in 1.0 mi NNE 11.5 mph - N/A   Overcast
5:55 AM 33.8 °F 27.7 °F 33.8 °F 100% 29.58 in 1.0 mi NE 6.9 mph - N/A   Overcast
6:15 AM 33.8 °F 26.4 °F 33.8 °F 100% 29.58 in 1.5 mi NNE 9.2 mph - N/A   Overcast
6:35 AM 33.8 °F - 33.8 °F 100% 29.61 in 1.0 mi Calm Calm - N/A   Overcast
6:55 AM 33.8 °F 29.6 °F 33.8 °F 100% 29.61 in 0.8 mi NNE 4.6 mph - N/A   Light Drizzle
7:15 AM 33.8 °F 29.6 °F 33.8 °F 100% 29.60 in 0.5 mi NNE 4.6 mph - N/A   Light Drizzle
7:35 AM 33.8 °F 29.6 °F 33.8 °F 100% 29.60 in 0.8 mi North 4.6 mph - N/A   Overcast
7:55 AM 33.8 °F 29.6 °F 33.8 °F 100% 29.59 in 0.8 mi North 4.6 mph - N/A   Overcast
8:15 AM 33.8 °F 27.7 °F 33.8 °F 100% 29.57 in 0.2 mi NE 6.9 mph - N/A Fog Fog
8:35 AM 33.8 °F 27.0 °F 33.8 °F 100% 29.55 in 0.2 mi NE 8.1 mph - N/A Fog Fog
8:55 AM 33.8 °F 28.6 °F 33.8 °F 100% 29.54 in 0.2 mi East 5.8 mph - N/A Fog Fog
9:15 AM 33.8 °F 28.6 °F 33.8 °F 100% 29.53 in 0.2 mi East 5.8 mph - N/A Fog Fog
9:35 AM 33.8 °F 29.6 °F 33.8 °F 100% 29.53 in 0.2 mi ESE 4.6 mph - N/A Fog Fog
9:55 AM 33.8 °F - 33.8 °F 100% 29.54 in 0.2 mi Calm Calm - N/A Fog Fog
10:15 AM 33.8 °F 30.8 °F 33.8 °F 100% 29.54 in 0.2 mi WSW 3.5 mph - N/A Fog Fog
10:35 AM 33.8 °F 27.0 °F 33.8 °F 100% 29.54 in 0.2 mi WNW 8.1 mph - N/A Fog Fog
10:55 AM 33.8 °F 26.4 °F 33.8 °F 100% 29.55 in 0.2 mi WNW 9.2 mph - N/A   Light Drizzle
11:15 AM 33.8 °F 27.7 °F 33.8 °F 100% 29.53 in 0.2 mi WNW 6.9 mph - N/A   Drizzle
11:35 AM 33.8 °F 25.3 °F 33.8 °F 100% 29.52 in 0.2 mi NW 11.5 mph - N/A   Light Drizzle
11:55 AM 33.8 °F 26.4 °F 33.8 °F 100% 29.51 in 0.2 mi NW 9.2 mph - 0.01 in   Light Drizzle
12:15 PM 33.8 °F 26.4 °F 33.8 °F 100% 29.50 in 0.8 mi NW 9.2 mph - N/A   Light Drizzle
12:35 PM 33.8 °F 24.8 °F 33.8 °F 100% 29.51 in 1.8 mi WNW 12.7 mph - N/A   Overcast
12:55 PM 33.8 °F 24.8 °F 33.8 °F 100% 29.50 in 2.0 mi WNW 12.7 mph 18.4 mph N/A   Light Drizzle
1:15 PM 32.0 °F 21.2 °F 32.0 °F 100% 29.50 in 1.8 mi West 16.1 mph - N/A   Light Drizzle
1:35 PM 32.0 °F 19.8 °F 32.0 °F 100% 29.50 in 1.8 mi West 20.7 mph - N/A   Light Drizzle
1:55 PM 32.0 °F 20.5 °F 32.0 °F 100% 29.51 in 2.0 mi WNW 18.4 mph - N/A   Light Drizzle
2:15 PM 30.2 °F 18.1 °F 30.2 °F 100% 29.51 in 4.0 mi West 18.4 mph - N/A   Overcast
2:35 PM 30.2 °F 18.5 °F 30.2 °F 100% 29.52 in 5.0 mi West 17.3 mph - N/A   Overcast
2:55 PM 30.2 °F 17.4 °F 28.4 °F 93% 29.53 in 3.0 mi West 20.7 mph - N/A   Light Freezing Rain
3:15 PM 28.4 °F 15.4 °F 28.4 °F 100% 29.54 in 3.0 mi West 19.6 mph 25.3 mph N/A   Light Freezing Rain
3:35 PM 26.6 °F 12.0 °F 26.6 °F 100% 29.56 in 9.0 mi West 23.0 mph - N/A   Overcast
3:55 PM 24.8 °F 9.6 °F 23.0 °F 93% 29.57 in 6.0 mi West 23.0 mph - N/A   Overcast
4:15 PM 24.8 °F 9.3 °F 23.0 °F 93% 29.58 in 10.0 mi West 24.2 mph - N/A   Overcast
4:35 PM 24.8 °F 10.3 °F 23.0 °F 93% 29.59 in 10.0 mi West 20.7 mph 27.6 mph N/A   Overcast
4:55 PM 23.0 °F 6.9 °F 21.2 °F 93% 29.60 in 10.0 mi West 24.2 mph 31.1 mph N/A   Overcast
5:15 PM 23.0 °F 7.2 °F 19.4 °F 86% 29.61 in - West 23.0 mph - N/A   Unknown
5:35 PM 21.2 °F 4.5 °F 17.6 °F 86% 29.64 in 10.0 mi West 24.2 mph 32.2 mph N/A   Overcast
5:55 PM 21.2 °F 4.2 °F 17.6 °F 86% 29.63 in 10.0 mi West 25.3 mph 32.2 mph N/A   Overcast
6:15 PM 21.2 °F 6.0 °F 17.6 °F 86% 29.64 in 10.0 mi WNW 19.6 mph 27.6 mph N/A   Overcast
6:35 PM 21.2 °F 5.6 °F 17.6 °F 86% 29.66 in 10.0 mi West 20.7 mph 27.6 mph N/A   Overcast
6:55 PM 21.2 °F 4.9 °F 17.6 °F 86% 29.68 in 10.0 mi West 23.0 mph 28.8 mph N/A   Overcast
7:15 PM 21.2 °F 4.5 °F 17.6 °F 86% 29.67 in 10.0 mi WNW 24.2 mph - N/A   Overcast
7:35 PM 21.2 °F 6.0 °F 17.6 °F 86% 29.68 in 10.0 mi WNW 19.6 mph 28.8 mph N/A   Overcast
7:55 PM 21.2 °F 6.8 °F 17.6 °F 86% 29.67 in 10.0 mi WNW 17.3 mph 23.0 mph N/A   Overcast
8:15 PM 21.2 °F 6.8 °F 17.6 °F 86% 29.69 in 10.0 mi WNW 17.3 mph - N/A   Overcast
8:35 PM 21.2 °F 6.8 °F 17.6 °F 86% 29.70 in 10.0 mi WNW 17.3 mph 26.5 mph N/A   Overcast
8:55 PM 21.2 °F 6.0 °F 17.6 °F 86% 29.72 in 10.0 mi West 19.6 mph 25.3 mph N/A   Overcast
9:15 PM 21.2 °F 5.2 °F 17.6 °F 86% 29.72 in 10.0 mi NW 21.9 mph - N/A   Overcast
9:35 PM 19.4 °F 2.1 °F 12.2 °F 74% 29.73 in 10.0 mi NW 24.2 mph 33.4 mph N/A Rain Light Freezing Rain
9:55 PM 17.6 °F 2.2 °F 12.2 °F 79% 29.77 in 10.0 mi WNW 17.3 mph 28.8 mph N/A   Mostly Cloudy
10:15 PM 17.6 °F 1.3 °F 10.4 °F 73% 29.78 in 10.0 mi WNW 19.6 mph 29.9 mph N/A Snow Light Snow
10:35 PM 15.8 °F -0.2 °F 8.6 °F 73% 29.80 in 10.0 mi NW 17.3 mph 28.8 mph N/A   Overcast
10:55 PM 15.8 °F -1.5 °F 8.6 °F 73% 29.83 in - NW 20.7 mph 29.9 mph N/A Snow Light Snow
11:15 PM 14.0 °F -5.5 °F 6.8 °F 73% 29.85 in 10.0 mi WNW 25.3 mph 33.4 mph N/A Rain Light Freezing Rain
11:35 PM 14.0 °F -3.9 °F 6.8 °F 73% 29.85 in 10.0 mi WNW 20.7 mph 28.8 mph N/A Snow Light Snow
11:55 PM 14.0 °F -3.0 °F 6.8 °F 73% 29.85 in 10.0 mi WNW 18.4 mph 27.6 mph N/A Rain Light Freezing Rain